Location: Bo?a Wola
(50.4192°N, 19.7966°E)
Time: 04:07:12
(UTC+00:00)

CZ-4C R/B - Pass Details

Date: 22 September 2024
Orbit: 519 x 1471 km, 63.4° (Epoch: 09 October)

Event Time Altitude Azimuth Distance (km) Brightness Sun altitude
Exits shadow 00:40:20 28° 332° (NNW) 1,551 3.7 -32.7°
Maximum altitude 00:41:01 29° 345° (NNW) 1,558 3.8 -32.6°
Drops below altitude 10° 00:46:34 10° 43° (NE) 2,823 5.8 -32.0°
Sets 00:49:58 0° 54° (NE) 3,957 6.7 -31.7°
